owner,sensor,date,latitude,longitude,vertical_datum,sea_water_practical_salinity,qcFlag 
DISL,ioos:station:DISL:BSCA:1,2011-12-01T00:00:00Z,30.3288,-87.8293,1.78,24.05,1111122 
DISL,ioos:station:DISL:BSCA:1,2011-12-01T00:30:00Z,30.3288,-87.8293,1.797,24.08,1111122 
DISL,ioos:station:DISL:BSCA:1,2011-12-01T01:00:00Z,30.3288,-87.8293,1.803,24.14,1111122 
DISL,ioos:station:DISL:BSCA:1,2011-12-01T01:30:00Z,30.3288,-87.8293,1.814,24.13,1111122 
DISL,ioos:station:DISL:BSCA:1,2011-12-01T02:00:00Z,30.3288,-87.8293,1.824,24.1,1111122 
DISL,ioos:station:DISL:BSCA:1,2011-12-01T02:30:00Z,30.3288,-87.8293,1.839,23.99,1111122 
DISL,ioos:station:DISL:BSCA:1,2011-12-01T03:00:00Z,30.3288,-87.8293,1.84,23.97,1111122 
DISL,ioos:station:DISL:BSCA:1,2011-12-01T03:30:00Z,30.3288,-87.8293,1.848,23.96,1111122 
DISL,ioos:station:DISL:BSCA:1,2011-12-01T04:00:00Z,30.3288,-87.8293,1.861,23.96,1111122 
DISL,ioos:station:DISL:BSCA:1,2011-12-01T04:30:00Z,30.3288,-87.8293,1.86,23.94,1111122 
DISL,ioos:station:DISL:BSCA:1,2011-12-01T05:00:00Z,30.3288,-87.8293,1.872,23.89,1111122 
DISL,ioos:station:DISL:BSCA:1,2011-12-01T05:30:00Z,30.3288,-87.8293,1.87,23.81,1111122 
DISL,ioos:station:DISL:BSCA:1,2011-12-01T06:00:00Z,30.3288,-87.8293,1.869,24.07,1111122 
DISL,ioos:station:DISL:BSCA:1,2011-12-01T06:30:00Z,30.3288,-87.8293,1.865,24.03,1111122 
DISL,ioos:station:DISL:BSCA:1,2011-12-01T07:00:00Z,30.3288,-87.8293,1.861,23.94,1111122 
DISL,ioos:station:DISL:BSCA:1,2011-12-01T07:30:00Z,30.3288,-87.8293,1.876,23.95,1111122 
DISL,ioos:station:DISL:BSCA:1,2011-12-01T08:00:00Z,30.3288,-87.8293,1.847,23.95,1111122 
DISL,ioos:station:DISL:BSCA:1,2011-12-01T08:30:00Z,30.3288,-87.8293,1.836,23.96,1111122 
DISL,ioos:station:DISL:BSCA:1,2011-12-01T09:00:00Z,30.3288,-87.8293,1.849,23.96,1111122 
DISL,ioos:station:DISL:BSCA:1,2011-12-01T09:30:00Z,30.3288,-87.8293,1.816,23.94,1111122 
DISL,ioos:station:DISL:BSCA:1,2011-12-01T10:00:00Z,30.3288,-87.8293,1.792,23.93,1111122 
DISL,ioos:station:DISL:BSCA:1,2011-12-01T10:30:00Z,30.3288,-87.8293,1.774,23.95,1111122 
DISL,ioos:station:DISL:BSCA:1,2011-12-01T11:00:00Z,30.3288,-87.8293,1.759,23.96,1111122 
DISL,ioos:station:DISL:BSCA:1,2011-12-01T11:30:00Z,30.3288,-87.8293,1.75,23.97,1111122 
DISL,ioos:station:DISL:BSCA:1,2011-12-01T12:00:00Z,30.3288,-87.8293,1.737,23.97,1111122 
DISL,ioos:station:DISL:BSCA:1,2011-12-01T12:30:00Z,30.3288,-87.8293,1.732,23.95,1111122 
DISL,ioos:station:DISL:BSCA:1,2011-12-01T13:00:00Z,30.3288,-87.8293,1.726,23.95,1111122 
DISL,ioos:station:DISL:BSCA:1,2011-12-01T13:30:00Z,30.3288,-87.8293,1.707,23.95,1111122 
DISL,ioos:station:DISL:BSCA:1,2011-12-01T14:00:00Z,30.3288,-87.8293,1.696,23.95,1111122 
DISL,ioos:station:DISL:BSCA:1,2011-12-01T14:30:00Z,30.3288,-87.8293,1.671,23.95,1111122 
DISL,ioos:station:DISL:BSCA:1,2011-12-01T15:00:00Z,30.3288,-87.8293,1.654,23.94,1111122 
DISL,ioos:station:DISL:BSCA:1,2011-12-01T15:30:00Z,30.3288,-87.8293,1.631,23.94,1111122 
DISL,ioos:station:DISL:BSCA:1,2011-12-01T16:00:00Z,30.3288,-87.8293,1.609,23.94,1111122 
DISL,ioos:station:DISL:BSCA:1,2011-12-01T16:30:00Z,30.3288,-87.8293,1.612,23.95,1111122 
DISL,ioos:station:DISL:BSCA:1,2011-12-01T17:00:00Z,30.3288,-87.8293,1.608,23.99,1111122 
DISL,ioos:station:DISL:BSCA:1,2011-12-01T17:30:00Z,30.3288,-87.8293,1.619,23.99,1111122 
DISL,ioos:station:DISL:BSCA:1,2011-12-01T18:00:00Z,30.3288,-87.8293,1.63,24.0,1111122 
DISL,ioos:station:DISL:BSCA:1,2011-12-01T18:30:00Z,30.3288,-87.8293,1.636,24.0,1111122 
DISL,ioos:station:DISL:BSCA:1,2011-12-01T19:00:00Z,30.3288,-87.8293,1.644,24.01,1111122 
DISL,ioos:station:DISL:BSCA:1,2011-12-01T19:30:00Z,30.3288,-87.8293,1.658,24.0,1111122 
DISL,ioos:station:DISL:BSCA:1,2011-12-01T20:00:00Z,30.3288,-87.8293,1.67,24.02,1111122 
DISL,ioos:station:DISL:BSCA:1,2011-12-01T20:30:00Z,30.3288,-87.8293,1.681,24.01,1111122 
DISL,ioos:station:DISL:BSCA:1,2011-12-01T21:00:00Z,30.3288,-87.8293,1.714,24.1,1111122 
DISL,ioos:station:DISL:BSCA:1,2011-12-01T21:30:00Z,30.3288,-87.8293,1.733,24.08,1111122 
DISL,ioos:station:DISL:BSCA:1,2011-12-01T22:00:00Z,30.3288,-87.8293,1.746,24.06,1111122 
DISL,ioos:station:DISL:BSCA:1,2011-12-01T22:30:00Z,30.3288,-87.8293,1.765,24.1,1111122 
DISL,ioos:station:DISL:BSCA:1,2011-12-01T23:00:00Z,30.3288,-87.8293,1.77,24.06,1111122 
DISL,ioos:station:DISL:BSCA:1,2011-12-01T23:30:00Z,30.3288,-87.8293,1.771,24.02,1111122 
DISL,ioos:station:DISL:BSCA:1,2011-12-02T00:00:00Z,30.3288,-87.8293,1.774,24.01,1111122 
DISL,ioos:station:DISL:BSCA:1,2011-12-02T00:30:00Z,30.3288,-87.8293,1.781,23.97,1111122 
DISL,ioos:station:DISL:BSCA:1,2011-12-02T01:00:00Z,30.3288,-87.8293,1.786,23.98,1111122 
DISL,ioos:station:DISL:BSCA:1,2011-12-02T01:30:00Z,30.3288,-87.8293,1.801,23.98,1111122 
DISL,ioos:station:DISL:BSCA:1,2011-12-02T02:00:00Z,30.3288,-87.8293,1.812,23.98,1111122 
DISL,ioos:station:DISL:BSCA:1,2011-12-02T02:30:00Z,30.3288,-87.8293,1.812,24.0,1111122 
DISL,ioos:station:DISL:BSCA:1,2011-12-02T03:00:00Z,30.3288,-87.8293,1.807,23.99,1111122 
DISL,ioos:station:DISL:BSCA:1,2011-12-02T03:30:00Z,30.3288,-87.8293,1.82,23.99,1111122 
DISL,ioos:station:DISL:BSCA:1,2011-12-02T04:00:00Z,30.3288,-87.8293,1.819,24.04,1111122 
DISL,ioos:station:DISL:BSCA:1,2011-12-02T04:30:00Z,30.3288,-87.8293,1.831,24.01,1111122 
DISL,ioos:station:DISL:BSCA:1,2011-12-02T05:00:00Z,30.3288,-87.8293,1.839,24.04,1111122 
DISL,ioos:station:DISL:BSCA:1,2011-12-02T05:30:00Z,30.3288,-87.8293,1.842,24.03,1111122 
DISL,ioos:station:DISL:BSCA:1,2011-12-02T06:00:00Z,30.3288,-87.8293,1.833,24.12,1111122 
DISL,ioos:station:DISL:BSCA:1,2011-12-02T06:30:00Z,30.3288,-87.8293,1.823,24.04,1111122 
DISL,ioos:station:DISL:BSCA:1,2011-12-02T07:00:00Z,30.3288,-87.8293,1.817,23.75,1111122 
DISL,ioos:station:DISL:BSCA:1,2011-12-02T07:30:00Z,30.3288,-87.8293,1.805,23.73,1111122 
DISL,ioos:station:DISL:BSCA:1,2011-12-02T08:00:00Z,30.3288,-87.8293,1.806,23.75,1111122 
DISL,ioos:station:DISL:BSCA:1,2011-12-02T08:30:00Z,30.3288,-87.8293,1.799,23.79,1111122 
DISL,ioos:station:DISL:BSCA:1,2011-12-02T09:00:00Z,30.3288,-87.8293,1.788,23.84,1111122 
DISL,ioos:station:DISL:BSCA:1,2011-12-02T09:30:00Z,30.3288,-87.8293,1.78,23.86,1111122 
DISL,ioos:station:DISL:BSCA:1,2011-12-02T10:00:00Z,30.3288,-87.8293,1.78,23.88,1111122 
DISL,ioos:station:DISL:BSCA:1,2011-12-02T10:30:00Z,30.3288,-87.8293,1.775,23.91,1111122 
DISL,ioos:station:DISL:BSCA:1,2011-12-02T11:00:00Z,30.3288,-87.8293,1.754,23.92,1111122 
DISL,ioos:station:DISL:BSCA:1,2011-12-02T11:30:00Z,30.3288,-87.8293,1.749,23.91,1111122 
DISL,ioos:station:DISL:BSCA:1,2011-12-02T12:00:00Z,30.3288,-87.8293,1.745,23.88,1111122 
DISL,ioos:station:DISL:BSCA:1,2011-12-02T12:30:00Z,30.3288,-87.8293,1.731,23.81,1111122 
DISL,ioos:station:DISL:BSCA:1,2011-12-02T13:00:00Z,30.3288,-87.8293,1.722,23.76,1111122 
DISL,ioos:station:DISL:BSCA:1,2011-12-02T13:30:00Z,30.3288,-87.8293,1.728,23.73,1111122 
DISL,ioos:station:DISL:BSCA:1,2011-12-02T14:00:00Z,30.3288,-87.8293,1.719,23.7,1111122 
DISL,ioos:station:DISL:BSCA:1,2011-12-02T14:30:00Z,30.3288,-87.8293,1.715,23.69,1111122 
DISL,ioos:station:DISL:BSCA:1,2011-12-02T15:00:00Z,30.3288,-87.8293,1.712,23.69,1111122 
DISL,ioos:station:DISL:BSCA:1,2011-12-02T15:30:00Z,30.3288,-87.8293,1.688,23.66,1111122 
DISL,ioos:station:DISL:BSCA:1,2011-12-02T16:00:00Z,30.3288,-87.8293,1.677,23.66,1111122 
DISL,ioos:station:DISL:BSCA:1,2011-12-02T16:30:00Z,30.3288,-87.8293,1.66,23.67,1111122 
DISL,ioos:station:DISL:BSCA:1,2011-12-02T17:00:00Z,30.3288,-87.8293,1.66,23.66,1111122 
DISL,ioos:station:DISL:BSCA:1,2011-12-02T17:30:00Z,30.3288,-87.8293,1.674,23.63,1111122 
DISL,ioos:station:DISL:BSCA:1,2011-12-02T18:00:00Z,30.3288,-87.8293,1.7,23.6,1111122 
DISL,ioos:station:DISL:BSCA:1,2011-12-02T18:30:00Z,30.3288,-87.8293,1.723,23.57,1111122 
DISL,ioos:station:DISL:BSCA:1,2011-12-02T19:00:00Z,30.3288,-87.8293,1.741,23.54,1111122 
DISL,ioos:station:DISL:BSCA:1,2011-12-02T19:30:00Z,30.3288,-87.8293,1.763,23.54,1111122 
DISL,ioos:station:DISL:BSCA:1,2011-12-02T20:00:00Z,30.3288,-87.8293,1.762,23.54,1111122 
DISL,ioos:station:DISL:BSCA:1,2011-12-02T20:30:00Z,30.3288,-87.8293,1.776,23.53,1111122 
DISL,ioos:station:DISL:BSCA:1,2011-12-02T21:00:00Z,30.3288,-87.8293,1.779,23.55,1111122 
DISL,ioos:station:DISL:BSCA:1,2011-12-02T21:30:00Z,30.3288,-87.8293,1.792,23.59,1111122 
DISL,ioos:station:DISL:BSCA:1,2011-12-02T22:00:00Z,30.3288,-87.8293,1.81,23.61,1111122 
DISL,ioos:station:DISL:BSCA:1,2011-12-02T22:30:00Z,30.3288,-87.8293,1.818,23.64,1111122 
DISL,ioos:station:DISL:BSCA:1,2011-12-02T23:00:00Z,30.3288,-87.8293,1.818,23.65,1111122 
DISL,ioos:station:DISL:BSCA:1,2011-12-02T23:30:00Z,30.3288,-87.8293,1.833,23.65,1111122 
DISL,ioos:station:DISL:BSCA:1,2011-12-03T00:00:00Z,30.3288,-87.8293,1.843,23.64,1111122 
DISL,ioos:station:DISL:BSCA:1,2011-12-03T00:30:00Z,30.3288,-87.8293,1.861,23.61,1111122 
DISL,ioos:station:DISL:BSCA:1,2011-12-03T01:00:00Z,30.3288,-87.8293,1.858,23.6,1111122 
DISL,ioos:station:DISL:BSCA:1,2011-12-03T01:30:00Z,30.3288,-87.8293,1.868,23.59,1111122 
DISL,ioos:station:DISL:BSCA:1,2011-12-03T02:00:00Z,30.3288,-87.8293,1.866,23.59,1111122 
DISL,ioos:station:DISL:BSCA:1,2011-12-03T02:30:00Z,30.3288,-87.8293,1.869,23.59,1111122 
DISL,ioos:station:DISL:BSCA:1,2011-12-03T03:00:00Z,30.3288,-87.8293,1.862,23.58,1111122 
DISL,ioos:station:DISL:BSCA:1,2011-12-03T03:30:00Z,30.3288,-87.8293,1.864,23.58,1111122 
DISL,ioos:station:DISL:BSCA:1,2011-12-03T04:00:00Z,30.3288,-87.8293,1.85,23.56,1111122 
DISL,ioos:station:DISL:BSCA:1,2011-12-03T04:30:00Z,30.3288,-87.8293,1.841,23.54,1111122 
DISL,ioos:station:DISL:BSCA:1,2011-12-03T05:00:00Z,30.3288,-87.8293,1.834,23.54,1111122 
DISL,ioos:station:DISL:BSCA:1,2011-12-03T05:30:00Z,30.3288,-87.8293,1.81,23.58,1111122 
DISL,ioos:station:DISL:BSCA:1,2011-12-03T06:00:00Z,30.3288,-87.8293,1.799,23.59,1111122 
DISL,ioos:station:DISL:BSCA:1,2011-12-03T06:30:00Z,30.3288,-87.8293,1.78,23.59,1111122 
DISL,ioos:station:DISL:BSCA:1,2011-12-03T07:00:00Z,30.3288,-87.8293,1.765,23.6,1111122 
DISL,ioos:station:DISL:BSCA:1,2011-12-03T07:30:00Z,30.3288,-87.8293,1.745,23.6,1111122 
DISL,ioos:station:DISL:BSCA:1,2011-12-03T08:00:00Z,30.3288,-87.8293,1.73,23.6,1111122 
DISL,ioos:station:DISL:BSCA:1,2011-12-03T08:30:00Z,30.3288,-87.8293,1.716,23.6,1111122 
DISL,ioos:station:DISL:BSCA:1,2011-12-03T09:00:00Z,30.3288,-87.8293,1.713,23.61,1111122 
DISL,ioos:station:DISL:BSCA:1,2011-12-03T09:30:00Z,30.3288,-87.8293,1.704,23.65,1111122 
DISL,ioos:station:DISL:BSCA:1,2011-12-03T10:00:00Z,30.3288,-87.8293,1.701,23.67,1111122 
DISL,ioos:station:DISL:BSCA:1,2011-12-03T10:30:00Z,30.3288,-87.8293,1.703,23.69,1111122 
DISL,ioos:station:DISL:BSCA:1,2011-12-03T11:00:00Z,30.3288,-87.8293,1.698,23.71,1111122 
DISL,ioos:station:DISL:BSCA:1,2011-12-03T11:30:00Z,30.3288,-87.8293,1.705,23.72,1111122 
DISL,ioos:station:DISL:BSCA:1,2011-12-03T12:00:00Z,30.3288,-87.8293,1.698,23.73,1111122 
DISL,ioos:station:DISL:BSCA:1,2011-12-03T12:30:00Z,30.3288,-87.8293,1.696,23.73,1111122 
DISL,ioos:station:DISL:BSCA:1,2011-12-03T13:00:00Z,30.3288,-87.8293,1.691,23.73,1111122 
DISL,ioos:station:DISL:BSCA:1,2011-12-03T13:30:00Z,30.3288,-87.8293,1.692,23.73,1111122 
DISL,ioos:station:DISL:BSCA:1,2011-12-03T14:00:00Z,30.3288,-87.8293,1.691,23.73,1111122 
DISL,ioos:station:DISL:BSCA:1,2011-12-03T14:30:00Z,30.3288,-87.8293,1.713,23.74,1111122 
DISL,ioos:station:DISL:BSCA:1,2011-12-03T15:00:00Z,30.3288,-87.8293,1.714,23.75,1111122 
DISL,ioos:station:DISL:BSCA:1,2011-12-03T15:30:00Z,30.3288,-87.8293,1.749,23.73,1111122 
DISL,ioos:station:DISL:BSCA:1,2011-12-03T16:00:00Z,30.3288,-87.8293,1.748,23.73,1111122 
DISL,ioos:station:DISL:BSCA:1,2011-12-03T16:30:00Z,30.3288,-87.8293,1.772,23.75,1111122 
DISL,ioos:station:DISL:BSCA:1,2011-12-03T17:00:00Z,30.3288,-87.8293,1.766,23.75,1111122 
DISL,ioos:station:DISL:BSCA:1,2011-12-03T17:30:00Z,30.3288,-87.8293,1.769,23.7,1111122 
DISL,ioos:station:DISL:BSCA:1,2011-12-03T18:00:00Z,30.3288,-87.8293,1.779,23.65,1111122 
DISL,ioos:station:DISL:BSCA:1,2011-12-03T18:30:00Z,30.3288,-87.8293,1.776,23.67,1111122 
DISL,ioos:station:DISL:BSCA:1,2011-12-03T19:00:00Z,30.3288,-87.8293,1.783,23.69,1111122 
DISL,ioos:station:DISL:BSCA:1,2011-12-03T19:30:00Z,30.3288,-87.8293,1.786,23.72,1111122 
DISL,ioos:station:DISL:BSCA:1,2011-12-03T20:00:00Z,30.3288,-87.8293,1.797,23.76,1111122 
DISL,ioos:station:DISL:BSCA:1,2011-12-03T20:30:00Z,30.3288,-87.8293,1.832,23.73,1111122 
DISL,ioos:station:DISL:BSCA:1,2011-12-03T21:00:00Z,30.3288,-87.8293,1.857,23.74,1111122 
DISL,ioos:station:DISL:BSCA:1,2011-12-03T21:30:00Z,30.3288,-87.8293,1.896,23.75,1111122 
DISL,ioos:station:DISL:BSCA:1,2011-12-03T22:00:00Z,30.3288,-87.8293,1.912,23.75,1111122 
DISL,ioos:station:DISL:BSCA:1,2011-12-03T22:30:00Z,30.3288,-87.8293,1.917,23.74,1111122 
DISL,ioos:station:DISL:BSCA:1,2011-12-03T23:00:00Z,30.3288,-87.8293,1.925,23.77,1111122 
DISL,ioos:station:DISL:BSCA:1,2011-12-03T23:30:00Z,30.3288,-87.8293,1.938,23.81,1111122 
DISL,ioos:station:DISL:BSCA:1,2011-12-04T00:00:00Z,30.3288,-87.8293,1.959,23.86,1111122 
DISL,ioos:station:DISL:BSCA:1,2011-12-04T00:30:00Z,30.3288,-87.8293,1.979,23.91,1111122 
DISL,ioos:station:DISL:BSCA:1,2011-12-04T01:00:00Z,30.3288,-87.8293,1.994,23.93,1111122 
DISL,ioos:station:DISL:BSCA:1,2011-12-04T01:30:00Z,30.3288,-87.8293,2.008,23.92,1111122 
DISL,ioos:station:DISL:BSCA:1,2011-12-04T02:00:00Z,30.3288,-87.8293,2.006,23.93,1111122 
DISL,ioos:station:DISL:BSCA:1,2011-12-04T02:30:00Z,30.3288,-87.8293,1.997,23.95,1111122 
DISL,ioos:station:DISL:BSCA:1,2011-12-04T03:00:00Z,30.3288,-87.8293,1.991,23.96,1111122 
DISL,ioos:station:DISL:BSCA:1,2011-12-04T03:30:00Z,30.3288,-87.8293,1.977,23.98,1111122 
DISL,ioos:station:DISL:BSCA:1,2011-12-04T04:00:00Z,30.3288,-87.8293,1.975,23.98,1111122 
DISL,ioos:station:DISL:BSCA:1,2011-12-04T04:30:00Z,30.3288,-87.8293,1.974,23.98,1111122 
DISL,ioos:station:DISL:BSCA:1,2011-12-04T05:00:00Z,30.3288,-87.8293,1.977,23.97,1111122 
DISL,ioos:station:DISL:BSCA:1,2011-12-04T05:30:00Z,30.3288,-87.8293,1.983,23.9,1111122 
DISL,ioos:station:DISL:BSCA:1,2011-12-04T06:00:00Z,30.3288,-87.8293,1.971,23.9,1111122 
DISL,ioos:station:DISL:BSCA:1,2011-12-04T06:30:00Z,30.3288,-87.8293,1.96,23.9,1111122 
DISL,ioos:station:DISL:BSCA:1,2011-12-04T07:00:00Z,30.3288,-87.8293,1.934,23.89,1111122 
DISL,ioos:station:DISL:BSCA:1,2011-12-04T07:30:00Z,30.3288,-87.8293,1.912,23.89,1111122 
DISL,ioos:station:DISL:BSCA:1,2011-12-04T08:00:00Z,30.3288,-87.8293,1.891,23.88,1111122 
DISL,ioos:station:DISL:BSCA:1,2011-12-04T08:30:00Z,30.3288,-87.8293,1.877,23.89,1111122 
DISL,ioos:station:DISL:BSCA:1,2011-12-04T09:00:00Z,30.3288,-87.8293,1.867,23.87,1111122 
DISL,ioos:station:DISL:BSCA:1,2011-12-04T09:30:00Z,30.3288,-87.8293,1.86,23.88,1111122 
DISL,ioos:station:DISL:BSCA:1,2011-12-04T10:00:00Z,30.3288,-87.8293,1.871,23.92,1111122 
DISL,ioos:station:DISL:BSCA:1,2011-12-04T10:30:00Z,30.3288,-87.8293,1.875,23.93,1111122 
DISL,ioos:station:DISL:BSCA:1,2011-12-04T11:00:00Z,30.3288,-87.8293,1.889,23.94,1111122 
DISL,ioos:station:DISL:BSCA:1,2011-12-04T11:30:00Z,30.3288,-87.8293,1.881,23.95,1111122 
DISL,ioos:station:DISL:BSCA:1,2011-12-04T12:00:00Z,30.3288,-87.8293,1.877,23.97,1111122 
DISL,ioos:station:DISL:BSCA:1,2011-12-04T12:30:00Z,30.3288,-87.8293,1.857,23.98,1111122 
DISL,ioos:station:DISL:BSCA:1,2011-12-04T13:00:00Z,30.3288,-87.8293,1.835,23.98,1111122 
DISL,ioos:station:DISL:BSCA:1,2011-12-04T13:30:00Z,30.3288,-87.8293,1.819,24.0,1111122 
DISL,ioos:station:DISL:BSCA:1,2011-12-04T14:00:00Z,30.3288,-87.8293,1.823,24.0,1111122 
DISL,ioos:station:DISL:BSCA:1,2011-12-04T14:30:00Z,30.3288,-87.8293,1.842,24.01,1111122 
DISL,ioos:station:DISL:BSCA:1,2011-12-04T15:00:00Z,30.3288,-87.8293,1.843,24.02,1111122 
DISL,ioos:station:DISL:BSCA:1,2011-12-04T15:30:00Z,30.3288,-87.8293,1.85,24.01,1111122 
DISL,ioos:station:DISL:BSCA:1,2011-12-04T16:00:00Z,30.3288,-87.8293,1.868,24.02,1111122 
DISL,ioos:station:DISL:BSCA:1,2011-12-04T16:30:00Z,30.3288,-87.8293,1.879,24.01,1111122 
DISL,ioos:station:DISL:BSCA:1,2011-12-04T17:00:00Z,30.3288,-87.8293,1.9,24.02,1111122 
DISL,ioos:station:DISL:BSCA:1,2011-12-04T17:30:00Z,30.3288,-87.8293,1.909,24.03,1111122 
DISL,ioos:station:DISL:BSCA:1,2011-12-04T18:00:00Z,30.3288,-87.8293,1.913,24.03,1111122 
DISL,ioos:station:DISL:BSCA:1,2011-12-04T18:30:00Z,30.3288,-87.8293,1.939,24.03,1111122 
DISL,ioos:station:DISL:BSCA:1,2011-12-04T19:00:00Z,30.3288,-87.8293,1.937,24.02,1111122 
DISL,ioos:station:DISL:BSCA:1,2011-12-04T19:30:00Z,30.3288,-87.8293,1.948,24.01,1111122 
DISL,ioos:station:DISL:BSCA:1,2011-12-04T20:00:00Z,30.3288,-87.8293,1.958,24.05,1111122 
DISL,ioos:station:DISL:BSCA:1,2011-12-04T20:30:00Z,30.3288,-87.8293,1.989,24.11,1111122 
DISL,ioos:station:DISL:BSCA:1,2011-12-04T21:00:00Z,30.3288,-87.8293,2.009,24.2,1111122 
DISL,ioos:station:DISL:BSCA:1,2011-12-04T21:30:00Z,30.3288,-87.8293,2.051,24.2,1111122 
DISL,ioos:station:DISL:BSCA:1,2011-12-04T22:00:00Z,30.3288,-87.8293,2.074,24.22,1111122 
DISL,ioos:station:DISL:BSCA:1,2011-12-04T22:30:00Z,30.3288,-87.8293,2.104,24.21,1111122 
DISL,ioos:station:DISL:BSCA:1,2011-12-04T23:00:00Z,30.3288,-87.8293,2.117,24.21,1111122 
DISL,ioos:station:DISL:BSCA:1,2011-12-04T23:30:00Z,30.3288,-87.8293,2.128,24.21,1111122 
DISL,ioos:station:DISL:BSCA:1,2011-12-05T00:00:00Z,30.3288,-87.8293,2.145,24.2,1111122 
DISL,ioos:station:DISL:BSCA:1,2011-12-05T00:30:00Z,30.3288,-87.8293,2.144,24.19,1111122 
DISL,ioos:station:DISL:BSCA:1,2011-12-05T01:00:00Z,30.3288,-87.8293,2.149,24.19,1111122 
DISL,ioos:station:DISL:BSCA:1,2011-12-05T01:30:00Z,30.3288,-87.8293,2.153,24.19,1111122 
DISL,ioos:station:DISL:BSCA:1,2011-12-05T02:00:00Z,30.3288,-87.8293,2.129,24.21,1111122 
DISL,ioos:station:DISL:BSCA:1,2011-12-05T02:30:00Z,30.3288,-87.8293,2.142,24.22,1111122 
DISL,ioos:station:DISL:BSCA:1,2011-12-05T03:00:00Z,30.3288,-87.8293,2.146,24.22,1111122 
DISL,ioos:station:DISL:BSCA:1,2011-12-05T03:30:00Z,30.3288,-87.8293,2.117,24.21,1111122 
DISL,ioos:station:DISL:BSCA:1,2011-12-05T04:00:00Z,30.3288,-87.8293,2.108,24.21,1111122 
DISL,ioos:station:DISL:BSCA:1,2011-12-05T04:30:00Z,30.3288,-87.8293,2.093,24.23,1111122 
DISL,ioos:station:DISL:BSCA:1,2011-12-05T05:00:00Z,30.3288,-87.8293,2.09,24.23,1111122 
DISL,ioos:station:DISL:BSCA:1,2011-12-05T05:30:00Z,30.3288,-87.8293,2.066,24.23,1111122 
DISL,ioos:station:DISL:BSCA:1,2011-12-05T06:00:00Z,30.3288,-87.8293,2.052,24.22,1111122 
DISL,ioos:station:DISL:BSCA:1,2011-12-05T06:30:00Z,30.3288,-87.8293,2.04,24.18,1111122 
DISL,ioos:station:DISL:BSCA:1,2011-12-05T07:00:00Z,30.3288,-87.8293,2.026,24.18,1111122 
DISL,ioos:station:DISL:BSCA:1,2011-12-05T07:30:00Z,30.3288,-87.8293,2.008,24.15,1111122 
DISL,ioos:station:DISL:BSCA:1,2011-12-05T08:00:00Z,30.3288,-87.8293,1.997,24.16,1111122 
DISL,ioos:station:DISL:BSCA:1,2011-12-05T08:30:00Z,30.3288,-87.8293,1.97,24.1,1111122 
DISL,ioos:station:DISL:BSCA:1,2011-12-05T09:00:00Z,30.3288,-87.8293,1.945,24.09,1111122 
DISL,ioos:station:DISL:BSCA:1,2011-12-05T09:30:00Z,30.3288,-87.8293,1.926,24.09,1111122 
DISL,ioos:station:DISL:BSCA:1,2011-12-05T10:00:00Z,30.3288,-87.8293,1.909,24.09,1111122 
DISL,ioos:station:DISL:BSCA:1,2011-12-05T10:30:00Z,30.3288,-87.8293,1.884,24.07,1111122 
DISL,ioos:station:DISL:BSCA:1,2011-12-05T11:00:00Z,30.3288,-87.8293,1.884,24.06,1111122 
DISL,ioos:station:DISL:BSCA:1,2011-12-05T11:30:00Z,30.3288,-87.8293,1.89,24.06,1111122 
DISL,ioos:station:DISL:BSCA:1,2011-12-05T12:00:00Z,30.3288,-87.8293,1.907,24.1,1111122 
DISL,ioos:station:DISL:BSCA:1,2011-12-05T12:30:00Z,30.3288,-87.8293,1.921,24.05,1111122 
DISL,ioos:station:DISL:BSCA:1,2011-12-05T13:00:00Z,30.3288,-87.8293,1.917,24.02,1111122 
DISL,ioos:station:DISL:BSCA:1,2011-12-05T13:30:00Z,30.3288,-87.8293,1.933,23.96,1111122 
DISL,ioos:station:DISL:BSCA:1,2011-12-05T14:00:00Z,30.3288,-87.8293,1.938,23.98,1111122 
DISL,ioos:station:DISL:BSCA:1,2011-12-05T14:30:00Z,30.3288,-87.8293,1.946,23.99,1111122 
DISL,ioos:station:DISL:BSCA:1,2011-12-05T15:00:00Z,30.3288,-87.8293,1.96,23.97,1111122 
DISL,ioos:station:DISL:BSCA:1,2011-12-05T15:30:00Z,30.3288,-87.8293,1.976,23.99,1111122 
DISL,ioos:station:DISL:BSCA:1,2011-12-05T16:00:00Z,30.3288,-87.8293,1.995,23.98,1111122 
DISL,ioos:station:DISL:BSCA:1,2011-12-05T16:30:00Z,30.3288,-87.8293,2.013,23.96,1111122 
DISL,ioos:station:DISL:BSCA:1,2011-12-05T17:00:00Z,30.3288,-87.8293,2.037,23.97,1111122 
DISL,ioos:station:DISL:BSCA:1,2011-12-05T17:30:00Z,30.3288,-87.8293,2.057,23.95,1111122 
DISL,ioos:station:DISL:BSCA:1,2011-12-05T18:00:00Z,30.3288,-87.8293,2.067,23.92,1111122 
DISL,ioos:station:DISL:BSCA:1,2011-12-05T18:30:00Z,30.3288,-87.8293,2.094,23.82,1111122 
DISL,ioos:station:DISL:BSCA:1,2011-12-05T19:00:00Z,30.3288,-87.8293,2.076,23.91,1111122 
DISL,ioos:station:DISL:BSCA:1,2011-12-05T19:30:00Z,30.3288,-87.8293,2.119,23.89,1111122 
DISL,ioos:station:DISL:BSCA:1,2011-12-05T20:00:00Z,30.3288,-87.8293,2.14,23.77,1111122 
DISL,ioos:station:DISL:BSCA:1,2011-12-05T20:30:00Z,30.3288,-87.8293,2.174,23.79,1111122 
DISL,ioos:station:DISL:BSCA:1,2011-12-05T21:00:00Z,30.3288,-87.8293,2.162,23.91,1111122 
DISL,ioos:station:DISL:BSCA:1,2011-12-05T21:30:00Z,30.3288,-87.8293,2.2,23.95,1111122 
DISL,ioos:station:DISL:BSCA:1,2011-12-05T22:00:00Z,30.3288,-87.8293,2.222,23.77,1111122 
DISL,ioos:station:DISL:BSCA:1,2011-12-05T22:30:00Z,30.3288,-87.8293,2.239,23.85,1111122 
DISL,ioos:station:DISL:BSCA:1,2011-12-05T23:00:00Z,30.3288,-87.8293,2.237,23.92,1111122 
DISL,ioos:station:DISL:BSCA:1,2011-12-05T23:30:00Z,30.3288,-87.8293,2.219,23.93,1111122 
DISL,ioos:station:DISL:BSCA:1,2011-12-06T00:00:00Z,30.3288,-87.8293,2.223,23.76,1111122 
DISL,ioos:station:DISL:BSCA:1,2011-12-06T00:30:00Z,30.3288,-87.8293,2.216,23.77,1111122 
DISL,ioos:station:DISL:BSCA:1,2011-12-06T01:00:00Z,30.3288,-87.8293,2.201,23.65,1111122 
DISL,ioos:station:DISL:BSCA:1,2011-12-06T01:30:00Z,30.3288,-87.8293,2.176,23.49,1111122 
DISL,ioos:station:DISL:BSCA:1,2011-12-06T02:00:00Z,30.3288,-87.8293,2.2,23.55,1111122 
DISL,ioos:station:DISL:BSCA:1,2011-12-06T02:30:00Z,30.3288,-87.8293,2.182,23.67,1111122 
DISL,ioos:station:DISL:BSCA:1,2011-12-06T03:00:00Z,30.3288,-87.8293,2.171,23.58,1111122 
DISL,ioos:station:DISL:BSCA:1,2011-12-06T03:30:00Z,30.3288,-87.8293,2.157,23.51,1111122 
DISL,ioos:station:DISL:BSCA:1,2011-12-06T04:00:00Z,30.3288,-87.8293,2.136,23.36,1111122 
DISL,ioos:station:DISL:BSCA:1,2011-12-06T04:30:00Z,30.3288,-87.8293,2.11,23.43,1111122 
DISL,ioos:station:DISL:BSCA:1,2011-12-06T05:00:00Z,30.3288,-87.8293,2.084,23.17,1111122 
DISL,ioos:station:DISL:BSCA:1,2011-12-06T05:30:00Z,30.3288,-87.8293,2.053,23.2,1111122 
DISL,ioos:station:DISL:BSCA:1,2011-12-06T06:00:00Z,30.3288,-87.8293,2.015,23.29,1111122 
DISL,ioos:station:DISL:BSCA:1,2011-12-06T06:30:00Z,30.3288,-87.8293,1.981,23.17,1111122 
DISL,ioos:station:DISL:BSCA:1,2011-12-06T07:00:00Z,30.3288,-87.8293,1.959,23.29,1111122 
DISL,ioos:station:DISL:BSCA:1,2011-12-06T07:30:00Z,30.3288,-87.8293,1.933,23.14,1111122 
DISL,ioos:station:DISL:BSCA:1,2011-12-06T08:00:00Z,30.3288,-87.8293,1.912,22.97,1111122 
DISL,ioos:station:DISL:BSCA:1,2011-12-06T08:30:00Z,30.3288,-87.8293,1.892,22.92,1111122 
DISL,ioos:station:DISL:BSCA:1,2011-12-06T09:00:00Z,30.3288,-87.8293,1.868,23.15,1111122 
DISL,ioos:station:DISL:BSCA:1,2011-12-06T09:30:00Z,30.3288,-87.8293,1.85,23.17,1111122 
DISL,ioos:station:DISL:BSCA:1,2011-12-06T10:00:00Z,30.3288,-87.8293,1.831,23.15,1111122 
DISL,ioos:station:DISL:BSCA:1,2011-12-06T10:30:00Z,30.3288,-87.8293,1.815,23.14,1111122 
DISL,ioos:station:DISL:BSCA:1,2011-12-06T11:00:00Z,30.3288,-87.8293,1.797,23.12,1111122 
DISL,ioos:station:DISL:BSCA:1,2011-12-06T11:30:00Z,30.3288,-87.8293,1.784,23.08,1111122 
DISL,ioos:station:DISL:BSCA:1,2011-12-06T12:00:00Z,30.3288,-87.8293,1.774,23.11,1111122 
DISL,ioos:station:DISL:BSCA:1,2011-12-06T12:30:00Z,30.3288,-87.8293,1.774,23.16,1111122 
DISL,ioos:station:DISL:BSCA:1,2011-12-06T13:00:00Z,30.3288,-87.8293,1.766,23.17,1111122 
DISL,ioos:station:DISL:BSCA:1,2011-12-06T13:30:00Z,30.3288,-87.8293,1.783,23.15,1111122 
DISL,ioos:station:DISL:BSCA:1,2011-12-06T14:00:00Z,30.3288,-87.8293,1.801,23.17,1111122 